Regional Weather Roundup
Issued by NWS

Home | Current Version | Previous Version | Text Only | Print | Product List | Glossary Off
Versions: 1 2 3 4 5 6 7 8 9 10 11 12 13 14 15 16 17 18 19 20 21 22 23 24 25 26 27 28 29 30 31 32 33 34 35 36 37 38 39 40 41 42 43 44 45 46 47 48 49 50

000
ASUS43 KLOT 311812
RWRIL

ILLINOIS REGIONAL WEATHER ROUNDUP
NATIONAL WEATHER SERVICE CHICAGO/ROMEOVILLE IL
100 PM CDT FRI JUL 31 2015

NOTE: "FAIR" INDICATES FEW OR NO CLOUDS BELOW 12,000 FEET WITH NO
SIGNIFICANT WEATHER AND/OR OBSTRUCTIONS TO VISIBILITY.

* THESE STATIONS ARE NOT UNDER NWS QUALITY CONTROL. THEY ALSO MAY NOT
  REPORT WEATHER SUCH AS PRECIPITATION OR FOG.

ILZ001-002-007-009-015-016-024-311900-
NORTHWEST ILLINOIS

CITY           SKY/WX    TMP DP  RH WIND       PRES   REMARKS
MOLINE         SUNNY     89  58  34 NW10G18   30.05F HX  88
6HR MIN TEMP:  68; 6HR MAX TEMP:  89;

STERLING*      SUNNY     84  61  45 NW17G24   30.01S HX  84
SAVANNA*       SUNNY     85  55  35 NW16G22   30.03F HX  83
$$

ILZ003-004-008-010-011-017-018-311900-
NORTH CENTRAL ILLINOIS

CITY           SKY/WX    TMP DP  RH WIND       PRES   REMARKS
ROCKFORD       MOSUNNY   85  56  37 NW20      30.02F HX  84
6HR MIN TEMP:  69; 6HR MAX TEMP:  86;

FREEPORT*      SUNNY     82  55  38 NW18G31   30.04F HX  82
ROCHELLE*      MOSUNNY   83  57  40 W21       30.03F HX  83
DE KALB*       SUNNY     83  58  41 NW23G31   30.02F HX  83
PERU*          SUNNY     83  56  39 NW15G22   30.04F HX  83
$$

ILZ005-006-012>014-019>023-311900-
NORTHEAST ILLINOIS

CITY           SKY/WX    TMP DP  RH WIND       PRES   REMARKS
CHICAGO-OHARE  MOSUNNY   86  51  29 W18G30    29.97F HX  84
6HR MIN TEMP:  70; 6HR MAX TEMP:  86;

CHICAGO-MIDWAY MOSUNNY   88  51  28 W17       29.97F HX  85
6HR MIN TEMP:  72; 6HR MAX TEMP:  89; 6HR PCP: TRACE;

AURORA         SUNNY     84  58  40 NW18G25   30.01F HX  83
6HR MIN TEMP:  66; 6HR MAX TEMP:  84;

LANSING*       SUNNY     86  55  34 W9G23     29.98F HX  85
JOLIET*        SUNNY     86  61  42 W9G17     30.00F HX  86
WAUKEGAN       MOSUNNY   82  55  39 NW16G25   29.95F HX  81
6HR MIN TEMP:  67; 6HR MAX TEMP:  84;

DUPAGE AIRPORT SUNNY     85  53  33 W18G25    29.99F HX  83
6HR MIN TEMP:  67; 6HR MAX TEMP:  86;

KANKAKEE*      PTSUNNY   85  67  55 W13G20    30.01F HX  88
WHEELING       SUNNY     86  49  27 W17G29    29.98F HX  83
6HR MIN TEMP:  70; 6HR MAX TEMP:  86;

MORRIS*        SUNNY     83  61  47 W15G21    30.00F HX  83
ROMEOVILLE*    SUNNY     84  53  34 NW16      30.00F HX  83
NORTHERLY ISL    N/A     84  45  25 NW17        N/A  HX  82
$$

LMZ740>746-311900-
SOUTHERN LAKE MICHIGAN

STATION/POSITION SKY/WX   TEMP    WIND        PRES    VSBY  WAVE
                          AIR SEA DIR/SP/G                  HT/PER
                          (F)     (DEG/KT/KT) (MB)    (MI)  (FT/S)
HARRISON CRIB              81     300/ 17/ 21   N/A
BURNHAM HARBOR             85     280/ 11/ 21   N/A
CALUMET HARBOR             86     270/  6/ 12   N/A
BURNS HARBOR               77     320/  9/ 12 1015.9F
MICHIGAN CITY              76     250/  9/ 10   N/A
MICHIGAN CITY 6N           76 74  300/  6/  6   N/A           1/ 3
ST. JOSEPH                 74 74  290/ 10/ 10   N/A           3/ 4
$$

ILZ025>027-034>036-040-047-049-050-058-095>099-311900-
WEST-CENTRAL ILLINOIS

CITY           SKY/WX    TMP DP  RH WIND       PRES   REMARKS
QUINCY         SUNNY     86  65  49 NW8       30.10F HX  88
GALESBURG*     SUNNY     85  63  48 NW10      30.08F HX  85
MACOMB*        SUNNY     85  68  56 NW8       30.10F HX  89
JACKSONVILLE*  SUNNY     87  69  54 NW7       30.09F HX  91
PITTSFIELD*    SUNNY     87  62  42 NW10      30.11F HX  88
$$

ILZ028>032-037-038-041>044-048-051>054-059>061-311900-
CENTRAL ILLINOIS

CITY           SKY/WX    TMP DP  RH WIND       PRES   REMARKS
PONTIAC        SUNNY     83  67  57 NW14G22   30.04F HX  86
BLOOMINGTON    MOSUNNY   87  67  51 NW20G26   30.07F HX  90
DECATUR        SUNNY     88  65  46 NW16G22   30.07F HX  90
PEORIA         SUNNY     88  63  43 N8        30.06F HX  89
6HR MIN TEMP:  71; 6HR MAX TEMP:  89;

LACON*         SUNNY     85  61  44 NW12      30.04F HX  85
LINCOLN*       MOSUNNY   90  66  45 N8        30.05F HX  92
SPRINGFIELD    SUNNY     88  70  55 NW13      30.08F HX  93
6HR MIN TEMP:  68; 6HR MAX TEMP:  88;

TAYLORVILLE    MOSUNNY   86  68  54 W9        30.08F HX  89
$$

ILZ033-039-045-046-055>057-062-063-311900-
EAST-CENTRAL ILLINOIS

CITY           SKY/WX    TMP DP  RH WIND       PRES   REMARKS
CHAMPAIGN      SUNNY     86  69  56 W13       30.06F HX  90
DANVILLE*      MOSUNNY   85  69  57 W13G26    30.02F HX  88
MATTOON        SUNNY     88  63  43 W10       30.07F HX  89
PARIS*         SUNNY     86  66  51 W10       30.06F HX  88
$$

ILZ079-100>102-311900-
SOUTHWEST ILLINOIS

CITY           SKY/WX    TMP DP  RH WIND       PRES   REMARKS
ALTON          MOSUNNY   86  66  51 NW9       30.10F HX  88
BELLEVILLE     SUNNY     89  69  52 N7        30.08F HX  93
CAHOKIA*       SUNNY     92  62  36 NE8       30.09F HX  92
SPARTA*        SUNNY     86  67  52 N7        30.11F HX  89
$$

ILZ064>066-069>071-074>076-080>082-084>086-088>090-092>094-311900-
SOUTH-CENTRAL ILLINOIS

CITY           SKY/WX    TMP DP  RH WIND       PRES   REMARKS
CARBONDALE     SUNNY     87  65  47 N6        30.10F HX  89
6HR MIN TEMP:  69; 6HR MAX TEMP:  88;

CAIRO*         SUNNY     86  69  56 E6        30.09F HX  89
EFFINGHAM*     SUNNY     87  61  40 W9        30.09F HX  87
MARION         MOSUNNY   88  66  48 N8        30.10F HX  90
MT. VERNON     SUNNY     88  64  45 NW3       30.10S HX  89
CENTRALIA*     SUNNY     87  62  43 N14       30.09F HX  87
SALEM*         MOSUNNY   88  64  45 NW9       30.10S HX  89
METROPOLIS*    SUNNY     86  70  58 N6        30.10F HX  90
$$

ILZ067-068-072-073-078-083-087-091-311900-
SOUTHEAST ILLINOIS

CITY           SKY/WX    TMP DP  RH WIND       PRES   REMARKS
LAWRENCEVILLE  SUNNY     88  64  44 N8        30.07F HX  89
FLORA*         SUNNY     86  65  49 N7        30.09F HX  88
FAIRFIELD*     MOSUNNY   87  68  54 NW5       30.08F HX  90
HARRISBURG*    SUNNY     87  66  50 N3        30.10F HX  89
ROBINSON*      SUNNY     86  66  51 NW6       30.08F HX  88
CARMI*         MOSUNNY   86  65  48 CALM      30.08F HX  87
$$

ABBREVIATIONS USED IN REMARKS
   TC - TEMPERATURE IN CELSIUS
  WCI - WIND CHILL INDEX
   HX - HEAT INDEX
  VSB - VISIBILITY
$$



USA.gov is the U.S. government's official web portal to all federal, state and local government web resources and services.